Back to catalog

QIANFAN-136

AliveCommunicationsPO
NORAD 69082·PAYLOAD·🇨🇳 China

Launched May 12, 2026 from Taiyuan Satellite Launch Center

Loading…

Next Passes (next 24 hours)

TLE

FreshSource: Space-Track

Epoch: Sep 14, 2026, 13:29 UTC

1 69082U 26104K   26257.56203571  .00000117  00000-0  16212-3 0  9993
2 69082  88.9912 332.3712 0001969 113.1251 247.0108 13.51031579 17212

Track QIANFAN-136 in real time with AllMySat

Download on the App Store